SPACEBEE-84 (47706 NORAD) Tracking and Keplerian Element Data

This shows tracking and keplerian element data for the satellite.

Feedback or suggestion? Click here.




ElementValue
Catalog47706
NameSPACEBEE-84
Epoch Orbit610
Epoch Day99.43621047
Epoch Year2021
RAAN174.3814
Inclination97.4561
Eccentricity0.0011821
Argument of Perigee149.4552
Mean Anonmoly210.7374
Mean Motion15.21471947
Decay Rate4.334E-05
L11 47706U 21015H 21099.43621047 .00004334 00000-0 19558-3 0 9996
L22 47706 97.4561 174.3814 0011821 149.4552 210.7374 15.21471947 6101

Live tracking and technical data element details for SPACEBEE-84 (NORAD 47706). SPACEBEE-84 can be tracked NOW for your location showing map with azimuth and elevation plus other details from your city location.

Track the satellite on the map from your city or location and see movement details for azimuth, elevation, latitude, longitude, range, height, and movement on the map or in text.







IsCatalogInMostPopularTable: catalog: 47706, numindb: 7
Update: records affected: 1



GetName: 47706 SPACEBEE-84

Hit Count: updated at: Sat, 10 Apr 2021 18:21:41 GMT